Shanghai Hongqiao, China

9:40 AM CST on September 24, 2017 (GMT +0800)
Hongqiao

Weather History for ZSSS - July, 2013

Change the Weather History Date:

Wednesday, July 31, 2013

  Actual Average Record
Temperature  
Mean Temperature 90 °F -  
Max Temperature 104 °F 89 °F 104 °F (2013)
Min Temperature 77 °F 76 °F 77 °F (1998)
Cooling Degree Days 26    
Growing Degree Days 40 (Base 50)    
Moisture  
Dew Point 72 °F    
Average Humidity 53    
Maximum Humidity 83    
Minimum Humidity 31    
Precipitation  
Precipitation 0.00 in 0.17 in - ()
Sea Level Pressure  
Sea Level Pressure 29.58 in    
Wind  
Wind Speed 8 mph ()    
Max Wind Speed 25 mph    
Max Gust Speed 42 mph    
Visibility 6.1 miles    
Events Rain , Thunderstorm    
Averages and records for this station are not official NWS values.
T = Trace of Precipitation, MM = Missing Value Source: Averaged Metar Reports

Daily Weather History Graph

Daily Weather History Graph

Search for Another Location

Airport or City:

Trip Planner

Search our weather history database for the weather conditions in past years. The results will help you decide how hot, cold, wet, or windy it might be!

Date:

Astronomy

Jul. 31, 2013 Rise Set
Actual Time 5:10 AM CST 6:51 PM CST
Civil Twilight 4:44 AM CST 7:17 PM CST
Nautical Twilight 4:12 AM CST 7:49 PM CST
Astronomical Twilight 3:38 AM CST 8:22 PM CST
Moon No Moon Rise 1:34 PM CST (7/31)
Length of Visible Light 14h 33m
Length of Day
13h 40m
Last Quarter, 36% of the Moon is Illuminated
Jul 31
Last Quarter
Aug 7
New
Aug 14
First Quarter
Aug 21
Full
Aug 28
Last Quarter

Hourly Weather History & Observations

Time (CST) Temp. Heat Index Dew Point Humidity Pressure Visibility Wind Dir Wind Speed Gust Speed Precip Events Conditions
12:00 AM 89.6 °F 99.8 °F 75.2 °F 62% 29.56 in - SSE 6.7 mph - N/A   Clear
12:30 AM 89.6 °F 99.8 °F 75.2 °F 62% 29.56 in - South 8.9 mph - N/A   Clear
1:00 AM 87.8 °F 97.6 °F 75.2 °F 66% 29.56 in - South 11.2 mph - N/A   Clear
1:30 AM 87.8 °F 97.6 °F 75.2 °F 66% 29.56 in - South 6.7 mph - N/A   Clear
2:00 AM 87.8 °F 97.6 °F 75.2 °F 66% 29.56 in - South 6.7 mph - N/A   Clear
2:30 AM 87.8 °F 97.6 °F 75.2 °F 66% 29.56 in - South 6.7 mph - N/A   Clear
3:00 AM 87.8 °F 97.6 °F 75.2 °F 66% 29.56 in - South 6.7 mph - N/A   Clear
3:30 AM 87.8 °F 97.6 °F 75.2 °F 66% 29.56 in - SSW 6.7 mph - N/A   Clear
4:00 AM 87.8 °F 95.6 °F 73.4 °F 62% 29.56 in - SW 6.7 mph - N/A   Clear
4:30 AM 87.8 °F 95.6 °F 73.4 °F 62% 29.56 in - SW 6.7 mph - N/A   Clear
5:00 AM 87.8 °F 95.6 °F 73.4 °F 62% 29.56 in - SW 6.7 mph - N/A   Clear
5:30 AM 87.8 °F 95.6 °F 73.4 °F 62% 29.59 in - SW 6.7 mph - N/A   Clear
6:00 AM 87.8 °F 95.6 °F 73.4 °F 62% 29.59 in - SW 6.7 mph - N/A   Clear
6:30 AM 89.6 °F 99.8 °F 75.2 °F 62% 29.59 in - SW 6.7 mph - N/A   Clear
7:00 AM 89.6 °F 99.8 °F 75.2 °F 62% 29.59 in - WSW 6.7 mph - N/A   Clear
7:30 AM 91.4 °F 102.5 °F 75.2 °F 59% 29.62 in - WSW 6.7 mph - N/A   Clear
8:00 AM 93.2 °F 105.0 °F 75.2 °F 56% 29.62 in - West 6.7 mph - N/A   Clear
8:30 AM 95.0 °F 104.5 °F 73.4 °F 49% 29.62 in - WNW 8.9 mph - N/A   Clear
9:00 AM 96.8 °F 107.3 °F 73.4 °F 47% 29.59 in - West 11.2 mph - N/A   Clear
9:30 AM 98.6 °F 109.2 °F 73.4 °F 44% 29.59 in - WNW 8.9 mph - N/A   Clear
10:00 AM 100.4 °F 109.3 °F 71.6 °F 39% 29.59 in - West 8.9 mph - N/A   Clear
10:30 AM 100.4 °F 109.3 °F 71.6 °F 39% 29.59 in 6.2 mi West 6.7 mph - N/A   Scattered Clouds
11:00 AM 102.2 °F 110.0 °F 69.8 °F 35% 29.59 in 6.2 mi WSW 8.9 mph - N/A   Scattered Clouds
11:30 AM 102.2 °F 110.0 °F 69.8 °F 35% 29.59 in 6.2 mi SW 8.9 mph - N/A   Scattered Clouds
12:00 PM 102.2 °F 110.0 °F 69.8 °F 35% 29.59 in 6.2 mi SW 6.7 mph - N/A   Scattered Clouds
12:30 PM 102.2 °F 110.0 °F 69.8 °F 35% 29.59 in 6.2 mi SW 11.2 mph - N/A   Scattered Clouds
1:00 PM 104.0 °F 112.2 °F 69.8 °F 33% 29.56 in 6.2 mi WSW 8.9 mph - N/A   Scattered Clouds
1:30 PM 104.0 °F 110.5 °F 68.0 °F 31% 29.56 in 6.2 mi SW 8.9 mph - N/A   Scattered Clouds
2:00 PM 104.0 °F 110.5 °F 68.0 °F 31% 29.53 in 6.2 mi Variable 2.2 mph - N/A   Scattered Clouds
2:30 PM 104.0 °F 110.5 °F 68.0 °F 31% 29.53 in 6.2 mi Variable 6.7 mph - N/A   Scattered Clouds
3:00 PM 104.0 °F 110.5 °F 68.0 °F 31% 29.53 in 6.2 mi Variable 4.5 mph - N/A   Scattered Clouds
3:30 PM 104.0 °F 110.5 °F 68.0 °F 31% 29.53 in 6.2 mi WSW 8.9 mph - N/A   Scattered Clouds
4:00 PM 104.0 °F 110.5 °F 68.0 °F 31% 29.53 in 6.2 mi Variable 6.7 mph - N/A   Scattered Clouds
4:30 PM 104.0 °F 110.5 °F 68.0 °F 31% 29.53 in 6.2 mi SW 8.9 mph - N/A   Scattered Clouds
5:00 PM 102.2 °F 111.7 °F 71.6 °F 37% 29.53 in 6.2 mi SSW 15.7 mph - N/A   Scattered Clouds
5:30 PM 100.4 °F 109.3 °F 71.6 °F 39% 29.53 in 6.2 mi South 15.7 mph - N/A   Scattered Clouds
6:00 PM 98.6 °F 107.7 °F 71.6 °F 42% 29.53 in 6.2 mi South 13.4 mph - N/A   Partly Cloudy
6:30 PM 96.8 °F 103.1 °F 69.8 °F 41% 29.56 in 6.2 mi South 15.7 mph - N/A   Scattered Clouds
7:00 PM 93.2 °F 105.0 °F 75.2 °F 56% 29.65 in 6.2 mi West 24.6 mph 42.5 mph N/A Rain , Thunderstorm Light Thunderstorms and Rain
7:30 PM 80.6 °F 83.9 °F 69.8 °F 70% 29.68 in 6.2 mi North 22.4 mph 35.8 mph N/A Rain , Thunderstorm Light Thunderstorms and Rain
8:00 PM 77.0 °F - 71.6 °F 83% 29.68 in 3.1 mi WNW 24.6 mph 38.0 mph N/A Rain , Thunderstorm Heavy Thunderstorms and Rain
8:30 PM 78.8 °F - 71.6 °F 78% 29.65 in 6.2 mi South 20.1 mph - N/A Rain , Thunderstorm Light Thunderstorms and Rain
9:00 PM 80.6 °F 84.6 °F 71.6 °F 74% 29.62 in 6.2 mi SSE 15.7 mph - N/A Thunderstorm Thunderstorm
9:30 PM 82.4 °F 86.3 °F 69.8 °F 66% 29.62 in 6.2 mi SE 13.4 mph - N/A Thunderstorm Thunderstorm
10:00 PM 82.4 °F 87.2 °F 71.6 °F 70% 29.62 in 6.2 mi Variable 2.2 mph - N/A   Partly Cloudy
10:30 PM 82.4 °F 87.2 °F 71.6 °F 70% 29.62 in 6.2 mi WSW 4.5 mph - N/A Rain Light Rain Showers
11:00 PM 82.4 °F 88.2 °F 73.4 °F 74% 29.62 in - SW 4.5 mph - N/A   Clear
11:30 PM 84.2 °F 92.3 °F 75.2 °F 74% 29.62 in - WSW 4.5 mph - N/A   Clear